Theta_e
316 317 317 317 318 318 318 319 320 320 320 321 321 322 322 322 323 323 323 323 324 325 325 326 327 327 327 328 328 328 326 326 324 319 316 321 326 335 338 340 340 340 338 325 317 312 308 309 309 310 312 316 315 314 315 318 313 313 306 300 296 295 293 297 297 298 300 298 298 301 302 301 302 303 303 305 302 302 303 303 305 306 305 306 307 309 309 309
315 316 316 317 317 318 318 318 319 320 320 320 321 322 322 322 322 323 323 323 324 324 325 326 327 327 327 328 328 327 324 326 323 312 312 326 336 340 341 338 340 338 333 318 312 309 307 308 309 309 309 309 317 310 316 314 316 308 300 298 295 296 298 299 299 300 298 299 301 302 302 301 300 301 303 299 299 301 300 302 304 303 305 306 306 306 307 308
314 315 316 316 317 317 317 318 318 319 320 321 320 321 322 321 322 323 323 323 324 324 325 326 326 326 327 327 327 326 325 331 325 309 321 332 337 340 337 337 335 335 321 312 311 310 308 307 307 306 309 305 310 309 311 311 312 306 301 297 296 300 298 300 301 300 302 303 301 302 302 300 301 302 304 301 298 300 299 300 301 302 303 304 304 306 306 307
315 314 315 315 316 317 317 317 318 319 320 321 321 321 321 322 322 322 323 324 323 324 325 325 326 326 327 326 327 325 325 329 313 313 328 335 338 338 334 329 331 327 320 316 312 311 310 310 308 308 310 306 307 308 307 310 306 306 302 298 300 299 299 300 301 302 302 301 301 302 302 300 302 303 303 300 297 299 301 301 301 301 302 303 304 305 305 306
315 315 314 315 315 317 317 318 318 319 320 320 321 321 320 321 322 322 323 323 323 324 324 325 325 326 326 326 324 325 325 311 309 324 324 336 337 334 331 332 331 321 316 314 312 311 311 309 308 309 311 302 307 306 301 305 307 305 299 301 302 301 299 302 303 302 302 302 300 301 299 301 303 303 301 300 296 296 300 301 302 302 302 302 302 304 305 305
315 315 315 314 315 315 317 316 318 319 319 319 320 321 321 321 322 322 322 323 323 323 324 325 325 326 325 325 321 325 325 296 309 320 331 332 331 331 330 329 330 319 313 312 312 312 309 308 309 307 304 302 301 300 301 303 306 297 301 301 301 301 300 303 303 302 301 302 301 300 302 303 301 301 302 301 300 301 302 303 302 302 303 303 304 304 303 304
315 315 315 314 314 314 316 316 317 318 319 320 320 321 321 322 322 322 322 322 322 323 323 324 325 326 324 323 326 319 316 311 319 326 330 331 327 327 329 332 328 318 313 311 311 311 313 307 306 308 303 302 301 300 302 304 307 301 297 301 301 302 301 304 302 301 300 302 301 303 303 300 300 297 302 301 302 302 302 303 302 303 303 304 302 303 302 303
315 315 314 314 314 314 314 316 316 317 319 320 320 321 321 322 322 322 321 322 322 323 323 324 325 325 324 325 328 318 315 310 317 323 323 328 325 320 325 322 316 321 313 311 311 309 308 306 304 305 303 300 301 301 303 302 302 300 299 301 301 302 302 303 301 301 301 301 302 302 300 299 300 300 300 301 301 302 302 303 303 303 302 302 302 301 302 302
315 315 314 315 314 314 314 314 316 317 318 320 320 321 321 321 321 321 322 322 322 323 323 324 324 324 324 321 320 308 308 323 326 325 326 325 317 315 321 318 314 312 312 314 312 312 312 307 306 305 299 301 302 302 301 299 301 301 301 302 303 302 303 301 302 301 301 302 302 300 299 301 302 302 299 301 301 302 302 302 302 302 301 301 301 301 301 301
316 316 316 315 315 315 314 314 315 316 318 319 320 320 321 321 321 321 322 322 322 323 323 324 324 323 322 327 322 304 319 320 324 323 319 319 317 317 315 319 316 313 312 312 312 311 310 307 309 309 308 304 306 302 301 302 298 301 300 300 300 301 301 302 301 302 302 301 301 298 298 300 300 300 294 300 301 302 301 301 302 301 300 301 301 301 301 301
317 318 317 316 316 316 315 315 316 316 318 319 320 320 320 321 321 321 322 322 322 323 323 324 324 322 323 316 308 302 324 328 327 318 317 320 315 315 317 316 314 314 312 314 311 310 310 309 311 310 311 301 302 301 301 300 301 302 300 299 300 301 301 301 301 301 302 300 301 300 299 300 299 300 296 299 301 302 301 300 300 301 300 299 301 300 301 300
317 318 319 318 317 317 317 316 316 317 317 318 319 319 320 320 321 321 321 322 322 323 324 324 324 321 322 315 307 310 317 325 325 317 322 321 319 320 320 316 314 320 313 310 316 317 315 315 313 306 300 306 299 302 300 302 302 301 300 296 300 301 301 302 300 301 301 300 300 301 297 295 296 295 299 300 301 301 301 300 300 300 300 300 299 299 299 298
317 318 319 319 319 318 317 316 316 316 317 318 318 319 320 321 321 321 321 322 323 323 324 323 322 324 320 305 310 315 318 323 322 319 320 318 316 315 319 320 319 315 315 312 312 317 318 314 312 305 309 304 302 297 301 303 302 302 300 297 297 298 298 303 303 301 299 300 299 299 289 295 296 297 299 300 300 300 300 299 299 299 299 299 299 299 298 298
319 318 319 320 319 318 317 316 316 316 317 318 318 319 320 321 321 321 321 322 324 324 323 323 322 318 314 307 313 320 321 322 319 318 319 321 317 320 318 320 319 317 320 316 315 313 316 309 314 308 312 303 300 306 301 301 302 296 301 299 293 293 293 300 300 299 297 299 299 299 292 293 295 297 299 299 301 300 298 299 299 299 299 299 299 298 297 298
319 319 320 320 319 318 317 316 316 316 317 317 318 319 320 321 321 320 322 322 324 325 323 322 322 321 308 307 316 319 328 322 315 318 322 317 315 316 316 317 317 317 312 313 315 314 312 316 314 306 300 305 306 301 298 299 299 298 295 291 295 292 296 298 301 299 297 297 299 298 292 294 295 296 298 299 300 300 298 299 299 299 299 299 299 298 297 297
319 319 320 320 319 318 317 317 316 316 317 318 318 320 320 321 321 320 322 323 323 322 322 322 324 315 305 304 314 328 324 310 312 320 317 323 320 317 315 314 315 314 312 309 318 312 310 314 307 305 301 303 300 297 296 297 297 298 293 293 293 295 295 295 298 302 302 298 299 297 292 297 294 297 298 300 299 299 298 299 299 299 299 299 298 297 297 297
319 320 320 320 320 319 318 317 316 315 316 317 319 320 321 322 321 321 322 322 321 323 321 317 315 313 301 314 317 313 311 317 318 321 318 318 318 316 312 313 311 309 313 311 315 314 309 306 307 304 307 299 299 301 293 291 292 294 295 292 297 294 296 293 295 299 301 298 294 296 294 295 297 296 298 299 300 299 298 299 299 298 297 298 297 297 297 297
320 320 321 321 320 319 318 317 317 316 317 318 319 320 319 321 321 320 321 319 322 322 321 322 317 312 306 308 304 307 314 313 320 317 319 315 314 313 312 308 309 308 309 306 312 305 308 305 303 298 300 299 299 296 290 287 293 293 294 291 294 296 297 296 294 296 298 298 296 296 294 295 298 297 298 298 299 298 297 297 298 298 297 298 297 296 296 296
320 321 321 321 320 319 318 318 317 317 317 319 321 322 322 319 319 321 318 318 314 310 305 305 307 295 295 307 310 312 318 315 318 318 310 313 319 314 315 313 312 305 304 302 301 304 305 304 304 298 294 296 296 297 295 297 299 297 296 296 295 292 294 294 298 297 298 295 294 295 293 296 298 300 297 297 298 298 297 297 297 297 297 297 296 296 295 295
320 321 321 321 320 320 318 318 318 317 318 318 319 319 318 314 314 310 313 315 308 307 309 310 309 308 308 309 309 311 315 319 310 316 314 318 313 311 308 309 311 309 303 299 302 302 306 296 293 292 296 299 300 300 300 301 300 299 298 297 295 295 296 299 299 297 298 295 294 295 296 296 298 299 299 297 297 296 296 296 296 296 296 296 295 296 295 295
320 321 321 320 320 320 319 319 318 318 318 318 318 315 309 307 304 301 307 310 312 311 308 309 310 308 308 311 311 309 306 306 311 311 314 318 312 308 304 306 303 300 301 304 302 302 303 295 296 299 301 302 302 302 301 300 299 298 297 295 293 296 293 298 298 295 298 295 293 296 295 296 298 300 299 297 296 295 296 296 296 296 296 296 295 295 294 294
320 320 321 321 320 320 319 319 319 318 320 319 316 312 314 310 314 312 312 303 311 312 312 310 310 311 312 312 311 314 315 305 307 310 316 314 308 303 303 303 301 298 302 303 300 297 295 293 298 302 304 304 302 300 300 298 299 299 295 294 293 293 297 299 299 297 297 297 292 295 293 295 297 298 299 296 296 296 297 297 297 296 295 295 295 295 294 294
320 320 321 321 320 320 319 319 319 319 317 315 312 313 313 315 318 319 316 308 305 313 311 310 307 307 309 311 311 312 306 304 302 308 309 311 306 305 304 300 300 300 303 302 296 295 292 296 300 304 304 302 300 301 299 299 299 295 294 291 290 295 294 291 295 296 297 294 293 293 293 295 298 300 300 297 297 295 296 297 296 298 296 295 295 295 294 293
319 320 321 320 320 320 319 318 320 316 314 314 314 314 319 320 319 316 313 301 300 306 311 312 311 310 308 307 311 309 306 306 307 305 312 308 303 306 304 302 300 300 299 301 299 297 296 302 305 304 303 300 299 300 298 295 293 296 295 294 293 295 296 294 295 296 296 296 296 293 291 292 295 295 292 293 295 295 294 295 295 294 296 295 295 295 295 294
319 320 320 320 319 320 319 319 313 311 315 314 313 317 320 322 321 318 311 302 302 304 317 317 317 316 312 315 313 306 307 308 308 310 310 308 305 303 302 305 302 298 300 301 300 298 298 303 304 302 300 300 299 297 297 297 292 293 297 296 296 297 296 297 298 295 291 290 296 293 284 285 294 295 294 292 292 292 293 292 292 293 293 293 292 293 293 295
319 319 320 320 320 319 319 311 311 314 312 310 315 319 319 320 322 317 310 299 292 303 307 302 315 308 318 307 311 312 308 302 309 310 310 309 311 307 304 301 303 297 301 301 299 299 299 302 302 299 299 297 298 296 298 297 293 291 293 299 299 297 296 296 295 293 283 283 292 295 284 282 291 292 293 291 291 291 291 291 292 293 293 292 292 292 292 292
319 319 320 320 320 320 311 307 316 314 308 310 317 321 322 322 321 316 301 294 289 302 301 308 309 307 314 309 310 309 295 299 308 308 307 311 306 312 301 299 302 302 303 304 298 294 298 298 298 299 299 296 295 294 299 298 293 290 296 299 297 296 295 295 294 293 289 294 295 293 291 282 284 291 295 293 292 291 289 291 292 292 292 292 292 292 292 292
319 320 320 320 320 318 313 316 314 309 309 315 320 321 320 319 318 314 301 284 284 308 301 301 308 311 311 309 313 305 301 304 300 302 303 310 307 304 303 300 299 299 300 300 289 299 298 296 297 297 296 295 294 297 300 300 295 294 297 299 296 297 296 296 293 290 290 289 283 288 292 283 283 290 296 294 291 290 290 291 291 291 292 292 292 292 292 292
319 319 319 319 319 319 318 316 313 311 316 317 320 320 318 317 313 306 293 283 303 300 312 301 312 309 307 309 306 304 301 301 297 300 306 307 307 303 298 301 302 301 302 301 295 297 298 298 299 300 296 294 298 296 299 301 295 296 298 298 297 297 295 296 289 288 286 284 281 286 291 283 283 291 292 292 291 292 292 292 292 292 292 291 291 291 291 291
319 320 319 319 318 316 315 317 314 318 315 316 317 317 317 312 305 294 285 280 306 295 303 301 302 299 304 300 301 300 298 299 300 301 303 301 304 307 302 305 301 300 299 301 299 297 298 297 298 299 297 299 294 294 295 298 297 299 298 295 294 293 290 289 289 287 284 282 284 289 292 288 281 287 290 289 291 293 293 292 292 292 292 292 292 291 291 291
319 320 319 319 313 315 315 310 314 316 314 313 315 314 311 309 296 289 281 291 301 300 301 299 298 304 299 298 296 300 301 298 298 300 297 302 299 301 301 298 305 297 291 292 291 295 296 297 297 298 299 297 297 293 295 296 297 297 292 289 290 286 287 286 285 286 280 280 284 290 291 291 281 282 291 292 293 294 294 292 292 292 291 292 291 291 291 290
318 320 320 318 318 318 310 308 315 315 311 313 312 308 305 291 296 285 286 301 292 296 296 295 300 299 299 302 299 297 296 298 299 298 296 295 294 294 295 293 294 287 287 288 288 293 291 292 297 297 299 298 295 292 291 294 294 294 291 289 284 281 281 278 281 277 279 280 282 283 289 287 286 290 291 292 292 293 295 294 293 292 292 292 291 291 291 290
318 318 319 319 318 316 316 318 316 313 311 312 309 306 298 289 283 291 292 295 291 299 297 302 297 299 299 298 297 298 300 294 298 298 299 297 295 295 299 298 298 295 287 290 289 288 289 295 296 295 296 298 298 290 285 284 289 291 289 286 283 280 278 274 278 280 280 281 282 283 286 281 286 291 297 293 292 293 293 294 294 294 292 292 291 291 291 290
318 318 316 317 318 318 318 316 315 312 310 311 306 300 294 285 285 297 294 295 297 300 300 299 298 299 299 294 298 297 292 298 296 296 298 294 295 292 295 298 299 297 295 289 287 288 283 283 291 293 288 297 297 296 293 290 289 291 293 291 286 285 279 276 279 277 278 280 281 283 281 279 281 285 289 290 290 291 292 294 294 293 293 292 291 290 290 289
318 318 318 318 317 319 317 316 314 312 310 308 301 296 286 285 290 290 291 295 298 299 297 301 297 296 295 297 299 298 298 293 297 296 295 294 291 293 293 294 298 299 297 289 291 287 288 289 294 298 296 297 295 299 300 294 290 290 293 294 287 285 287 281 282 281 279 278 277 278 279 283 286 290 289 289 289 290 291 292 293 292 292 290 289 289 288 288
316 316 318 314 314 317 316 316 314 312 310 304 296 290 287 290 287 296 294 303 299 295 296 298 297 293 292 293 296 296 300 295 296 295 293 294 295 293 297 297 296 299 296 290 292 285 287 286 291 295 297 295 296 298 298 298 284 289 291 286 289 293 290 284 281 283 280 280 278 281 281 284 290 289 288 289 288 289 290 290 291 291 291 290 289 288 288 288
313 315 310 313 313 317 316 315 313 311 309 302 294 287 292 295 302 300 304 300 299 298 295 290 291 291 290 290 291 293 295 297 295 293 289 295 292 296 296 298 301 300 301 298 293 297 286 288 290 291 289 293 292 294 297 295 297 291 283 289 294 296 293 286 280 281 279 277 279 281 280 280 282 281 287 286 286 287 288 288 290 291 290 289 289 289 289 289
312 311 311 312 315 316 316 315 312 309 306 300 292 293 298 294 304 303 304 299 299 299 295 293 294 296 291 291 290 292 294 291 292 293 290 294 289 300 297 297 301 301 301 303 294 294 296 285 287 292 291 292 294 294 294 296 295 291 288 296 289 282 282 284 281 275 275 275 277 279 282 282 284 285 284 286 287 288 288 289 289 290 290 290 289 289 289 289
313 310 305 312 318 316 315 314 311 306 301 294 293 290 297 299 304 302 303 302 302 298 294 295 294 294 295 291 293 293 293 288 292 290 288 292 288 298 297 299 298 302 302 302 296 294 295 287 284 289 291 291 292 291 285 288 294 295 295 290 292 285 283 282 283 281 282 277 276 276 281 278 287 288 288 289 290 290 289 288 289 290 291 291 291 290 289 289
309 304 303 315 317 316 315 312 306 302 298 290 292 292 301 297 302 305 304 302 298 298 296 296 298 294 295 295 295 290 292 292 291 289 291 293 292 298 297 302 299 299 301 302 298 299 289 291 283 285 292 291 283 288 287 290 287 285 284 283 286 285 287 285 285 283 280 277 276 276 276 281 288 292 291 292 293 292 290 290 290 291 291 292 292 291 290 290
310 304 304 315 316 316 313 307 300 295 294 297 297 294 298 298 302 303 304 304 301 302 301 298 297 295 296 294 295 296 291 292 291 288 290 292 293 288 297 298 300 297 300 299 297 296 289 287 285 283 283 283 286 292 293 293 293 290 288 286 289 285 282 279 279 287 283 280 277 277 277 283 291 293 293 294 294 293 292 292 291 291 292 292 293 292 291 291
304 296 301 315 315 313 306 296 297 300 297 293 292 297 296 305 303 302 302 303 303 299 302 301 300 298 297 296 297 294 292 290 291 290 291 289 294 294 296 297 301 300 293 287 292 298 294 288 287 283 285 286 291 291 292 291 291 292 292 288 291 288 285 283 278 280 282 282 281 280 276 280 289 289 287 287 287 289 293 293 292 292 292 293 293 293 292 292
301 300 305 311 314 311 303 295 297 296 294 297 303 301 304 302 301 303 300 301 298 302 299 297 299 298 300 298 297 295 294 290 291 290 292 291 294 296 296 297 299 297 295 289 296 293 295 288 286 285 287 289 290 294 293 292 292 289 289 290 290 287 288 286 284 282 282 280 280 279 277 279 288 286 286 282 283 284 289 292 292 292 293 293 293 293 292 291
304 300 302 309 313 310 300 290 290 292 295 299 299 298 303 302 301 299 299 300 298 299 297 297 299 302 298 301 298 295 296 288 293 293 290 294 292 293 294 296 298 293 294 292 291 296 289 288 287 284 283 284 285 288 289 290 289 283 285 289 290 291 290 286 284 285 281 282 280 280 277 280 287 287 287 288 287 288 289 291 293 292 291 292 292 292 292 291
302 303 302 304 305 306 296 298 295 293 294 295 295 295 297 299 302 302 301 299 301 300 298 297 299 300 297 299 298 298 297 295 289 294 294 292 293 291 293 294 296 295 298 294 297 299 291 287 287 282 280 278 277 278 281 282 284 286 285 285 290 290 289 285 284 283 280 280 283 280 280 285 288 287 289 288 286 289 290 290 292 292 292 291 291 292 292 291
298 291 298 298 302 299 301 300 300 297 294 294 294 295 297 295 299 303 303 300 302 301 300 297 299 300 296 294 294 294 295 297 294 289 290 289 288 289 291 293 293 296 294 295 295 296 287 289 288 288 286 284 286 285 287 288 285 283 285 287 288 290 290 287 286 284 282 282 282 285 284 284 285 286 288 287 284 288 288 287 288 290 291 291 291 292 292 291
301 296 293 289 298 297 295 299 297 298 294 297 290 295 293 295 297 296 303 296 300 300 299 297 297 295 294 294 293 293 295 294 295 292 290 289 287 287 290 291 291 291 293 293 295 292 286 286 288 289 288 289 288 288 290 290 286 287 286 286 288 288 289 288 286 284 286 283 281 286 286 284 287 287 287 288 288 288 289 289 289 288 288 291 291 291 292 290
292 297 301 301 295 289 291 292 298 297 298 297 293 296 293 293 294 292 298 300 301 301 295 295 297 297 297 295 295 289 292 292 292 289 293 290 286 287 286 290 290 292 292 292 294 292 287 286 289 288 287 289 287 288 287 288 288 288 288 287 286 288 288 287 287 288 287 285 283 286 286 285 288 288 289 289 291 290 290 290 291 291 291 289 289 289 289 289
295 293 294 298 293 297 296 296 298 297 296 297 294 295 293 293 292 295 295 295 297 297 298 290 293 296 297 297 294 290 291 287 287 291 289 289 288 286 285 288 290 290 291 288 290 289 289 286 288 288 287 288 288 288 287 286 285 286 287 288 288 288 287 288 288 290 288 286 287 288 285 286 289 289 290 291 291 291 291 291 290 290 290 290 289 289 289 288
289 292 290 295 293 291 293 297 297 296 293 297 292 294 295 294 293 296 297 295 290 294 299 294 295 295 295 295 295 291 293 294 293 289 291 290 287 288 288 290 286 286 288 288 288 288 290 286 290 287 286 286 288 288 288 287 287 285 287 288 288 288 288 288 288 288 288 287 288 286 285 286 291 290 290 292 290 292 291 289 290 290 289 289 289 289 289 289
294 292 295 291 288 289 291 293 295 294 292 293 292 294 295 296 294 297 296 299 296 293 296 294 296 295 293 295 295 295 297 295 293 292 293 293 289 292 290 288 290 286 287 287 288 287 289 285 286 288 284 284 287 287 286 286 286 285 285 287 286 285 285 287 286 287 286 286 287 285 285 286 289 290 291 291 290 290 289 289 289 289 289 289 289 288 288 289
294 295 294 294 287 293 288 289 289 294 289 294 295 295 295 295 298 298 293 298 299 299 298 298 297 296 291 293 293 296 299 298 295 294 295 296 295 294 294 292 292 289 287 288 288 287 287 286 284 285 283 283 285 286 284 284 284 281 284 287 287 286 288 289 288 288 289 290 286 284 285 290 290 288 288 287 288 288 289 289 289 288 287 288 289 289 289 288
Wind_Speed
1 1 1 1 1 1 3 3 3 4 4 5 5 6 6 7 8 8 9 10 10 11 11 13 13 13 13 13 14 13 15 4 3 4 1 2 2 5 4 5 5 6 4 4 6 5 3 2 2 1 2 1 0 1 2 0 1 0 0 1 2 3 6 2 5 3 5 4 3 3 3 2 1 1 3 1 2 3 2 2 7 11 8 6 4 3 3 4
2 1 1 1 1 2 2 3 4 4 4 4 5 6 7 7 8 9 9 10 11 12 12 13 13 13 13 13 13 14 10 3 3 8 4 3 3 4 4 4 4 3 2 3 3 3 5 0 0 2 2 1 1 0 0 0 0 0 3 1 2 3 0 3 2 6 2 5 4 3 2 2 1 1 1 2 3 5 4 5 9 9 7 6 6 4 5 5
2 2 1 1 2 2 3 3 3 4 4 5 5 6 7 8 9 10 10 11 12 12 13 13 13 13 14 14 12 11 6 2 4 4 1 4 3 5 4 3 3 2 1 4 6 5 4 5 3 3 2 1 0 1 1 0 1 0 1 2 3 3 3 4 4 4 4 2 3 2 2 1 1 1 1 1 4 4 3 3 7 6 5 5 4 5 5 7
3 2 2 2 2 2 2 2 3 3 3 5 6 6 7 8 9 10 12 12 12 13 14 14 14 14 14 14 11 8 3 3 1 3 3 4 4 3 3 4 4 3 5 6 3 5 3 3 3 3 1 2 1 1 1 1 1 1 0 2 1 2 1 3 3 4 4 4 2 1 2 2 1 0 0 2 4 3 5 4 5 5 5 5 5 4 4 6
3 3 3 2 2 2 2 3 3 3 4 5 6 7 8 9 10 11 12 13 13 14 14 15 14 15 15 12 12 4 2 2 2 2 2 4 2 3 3 4 4 4 6 6 5 3 3 4 2 2 0 1 2 1 2 1 2 1 0 3 2 0 2 3 6 5 4 3 1 1 0 1 3 0 1 4 3 2 1 4 4 5 4 4 3 4 4 5
4 4 4 3 3 3 3 3 3 3 5 5 6 7 8 9 10 11 12 13 14 15 15 14 15 15 15 13 7 3 1 2 3 3 2 3 3 2 3 3 5 5 5 6 3 2 4 3 1 2 2 2 1 1 1 2 1 2 1 3 3 3 1 2 4 3 1 2 1 1 1 2 1 3 3 3 5 3 4 4 5 5 4 4 4 4 5 5
5 5 4 3 3 3 3 3 4 5 5 6 6 7 8 9 10 11 13 13 14 14 14 14 15 15 16 14 3 3 3 1 1 1 2 3 1 2 2 4 4 4 4 4 2 3 1 4 2 0 3 3 1 2 3 0 0 1 1 3 3 2 2 3 3 5 1 1 3 1 2 1 3 5 1 3 8 7 5 4 6 5 4 3 6 4 5 5
5 4 4 3 3 3 3 3 4 4 5 6 6 7 7 9 10 11 12 13 14 14 14 14 14 13 14 4 1 1 3 2 2 2 2 3 3 3 3 2 2 2 4 3 5 4 3 4 3 3 2 3 1 2 1 3 3 2 1 4 3 1 2 0 4 3 3 3 3 2 2 5 4 4 2 2 7 6 5 5 6 5 4 5 4 4 5 5
6 6 6 5 4 2 3 4 4 4 5 5 6 7 8 9 10 11 12 13 14 14 14 14 14 12 9 2 2 4 1 0 3 3 5 3 2 1 2 1 1 2 2 1 1 3 2 2 2 4 2 5 4 4 2 2 0 1 3 1 0 1 3 4 2 3 5 3 3 3 5 6 8 4 2 6 5 6 6 6 5 4 4 4 4 4 4 5
7 6 6 5 5 4 3 3 4 4 5 5 6 7 7 9 10 11 12 13 14 14 14 14 12 13 5 2 2 3 1 2 2 2 2 1 2 1 3 3 2 2 3 2 2 2 1 3 3 3 3 3 0 1 3 0 0 2 3 3 4 4 3 2 5 4 6 4 4 4 4 4 1 3 3 4 6 5 6 5 4 4 4 4 4 4 4 5
8 8 7 7 6 4 1 2 4 4 5 5 6 7 8 9 11 12 13 14 14 14 13 13 11 11 3 3 3 3 1 1 0 2 3 2 1 1 3 4 3 3 4 1 1 5 4 4 3 2 1 1 2 2 1 2 2 2 3 4 6 8 8 5 4 5 2 3 4 4 5 4 3 1 2 7 5 5 6 5 4 4 4 4 5 5 3 5
9 8 9 8 6 4 4 4 4 5 5 6 6 7 8 10 11 12 13 14 14 12 12 11 11 4 4 4 4 2 3 1 1 2 1 1 3 2 2 3 3 2 3 3 2 4 3 3 4 1 1 3 1 1 1 2 1 1 2 3 4 6 6 7 9 7 5 1 1 3 4 6 4 3 5 6 5 4 5 6 5 4 4 4 4 4 4 3
9 8 9 9 8 6 4 5 5 6 6 6 7 8 8 10 11 12 13 14 11 12 11 11 8 3 3 4 1 1 3 2 1 3 3 3 3 2 1 1 1 1 3 2 2 2 2 2 2 3 2 0 3 0 1 1 1 1 4 4 5 5 7 8 8 5 5 2 5 3 2 4 7 5 6 6 6 4 5 5 4 4 4 3 4 5 4 4
8 9 7 8 8 7 4 3 5 6 7 7 7 8 9 10 11 12 12 12 14 12 9 9 4 4 2 2 1 1 2 1 3 3 3 2 3 1 1 1 0 0 0 1 1 1 1 1 2 1 0 1 1 1 1 2 1 1 3 2 3 2 2 2 4 5 4 2 4 1 2 2 6 5 5 5 6 6 5 5 5 5 4 4 4 5 5 5
10 9 7 9 7 5 5 2 3 6 6 7 8 8 9 11 12 12 12 11 9 8 9 9 4 2 3 1 1 2 3 4 3 3 2 2 2 2 2 1 2 1 2 2 1 0 1 1 1 1 1 1 1 1 2 3 3 3 1 3 2 4 0 2 5 8 5 1 3 3 2 5 5 5 5 5 6 5 5 6 5 4 5 5 4 4 5 5
11 10 9 9 8 7 6 4 1 5 6 7 8 9 11 11 11 11 11 9 12 9 6 2 3 2 3 5 1 2 1 3 3 5 1 2 1 1 4 3 3 2 3 2 0 0 1 1 1 1 2 1 1 2 2 3 2 4 5 3 4 3 3 3 3 1 4 4 2 6 3 2 1 4 5 5 7 7 5 6 6 6 5 5 4 4 5 5
11 11 9 9 9 8 7 6 4 3 7 8 9 11 12 9 9 10 11 9 5 3 2 2 1 4 4 1 2 3 4 2 1 1 1 0 1 3 4 3 2 3 2 2 1 1 1 2 1 1 2 2 2 3 1 2 4 4 4 4 3 4 2 2 1 2 1 3 3 5 3 4 0 7 6 6 7 8 6 6 7 5 4 4 4 4 4 4
12 11 9 10 11 9 9 7 6 5 6 7 8 9 8 8 9 10 7 4 4 3 5 4 2 2 5 4 5 3 4 4 3 4 2 1 2 2 3 3 3 3 3 3 1 2 2 1 2 2 2 3 3 3 5 5 6 3 2 4 5 4 5 4 2 5 3 2 2 2 6 5 5 7 8 10 8 7 7 5 7 6 5 5 4 4 4 4
12 9 9 10 10 9 9 7 5 4 6 7 11 11 10 6 4 4 4 2 2 1 1 4 4 5 3 5 5 6 3 3 4 2 2 2 1 2 1 1 3 5 3 2 2 3 1 0 1 1 4 5 7 7 7 7 4 6 4 2 3 3 3 3 2 6 3 4 5 6 6 6 5 5 6 5 8 7 5 3 5 5 5 5 4 4 4 5
12 9 9 9 11 10 9 8 6 6 4 6 5 3 1 1 1 1 3 5 6 7 2 6 10 2 5 7 4 2 4 2 3 1 5 2 3 3 3 3 1 2 2 3 4 4 4 3 4 6 7 7 6 8 9 8 7 3 1 3 5 4 5 4 5 5 1 1 4 5 6 6 7 7 4 9 5 4 5 5 5 4 5 4 4 4 4 4
12 10 10 10 10 10 10 8 7 4 4 4 6 2 3 2 3 3 5 7 11 8 11 5 10 8 3 7 4 8 6 2 2 3 3 2 3 7 4 4 3 3 4 4 5 1 2 5 7 6 7 7 7 5 10 9 7 6 2 3 5 3 5 3 3 4 1 2 1 2 6 10 10 7 4 8 6 7 8 6 4 4 5 4 4 5 4 5
13 12 11 11 10 12 11 9 7 4 2 4 3 5 3 2 1 1 0 4 7 15 11 10 6 2 4 4 7 4 2 4 2 4 0 2 5 6 5 5 7 5 5 5 4 1 4 8 7 8 7 6 3 2 4 3 2 2 1 2 3 4 5 5 3 6 1 0 5 2 5 5 5 6 5 9 8 3 3 3 4 7 5 4 4 4 5 4
13 13 12 12 11 13 12 9 6 4 3 4 5 6 5 1 2 2 2 3 7 7 11 9 10 10 5 5 4 1 5 7 6 7 7 3 5 5 7 6 7 6 4 8 5 4 6 5 12 9 7 7 3 0 0 2 2 3 3 4 6 2 2 3 1 1 3 2 2 4 9 10 11 13 10 2 4 4 5 6 7 4 6 4 5 5 4 4
13 13 12 11 14 14 13 9 7 3 5 7 7 7 2 0 3 3 1 2 4 4 9 10 12 8 10 8 6 8 8 5 6 10 5 6 9 3 3 9 7 6 7 8 10 9 11 2 2 8 8 4 6 3 3 3 6 4 6 6 4 3 5 5 2 2 3 3 5 4 6 7 12 8 2 2 5 5 3 4 3 3 5 5 6 4 3 5
14 13 12 11 12 14 10 8 4 6 6 7 11 9 8 3 1 2 1 3 5 4 6 1 2 3 5 5 8 7 8 4 7 4 9 10 8 4 5 3 3 8 8 7 9 10 11 8 0 2 5 4 4 5 5 4 6 4 6 11 6 5 5 4 5 7 5 5 0 3 3 2 0 7 8 4 1 3 3 4 4 4 3 3 4 4 3 4
14 14 13 12 12 15 13 5 6 7 8 9 4 5 9 4 3 0 0 2 8 2 3 7 5 5 4 5 5 3 4 7 2 3 10 4 2 3 2 6 4 8 8 7 9 5 3 3 6 6 5 4 4 4 4 8 5 3 3 3 4 5 1 2 3 1 3 3 1 0 3 5 3 4 3 3 4 4 3 4 5 6 5 4 4 5 5 4
15 15 15 13 14 16 8 5 6 9 6 7 8 3 2 3 1 0 1 1 9 6 9 1 1 1 1 8 8 5 3 5 1 5 2 3 5 0 5 5 3 2 1 1 1 5 5 4 2 3 5 6 5 6 4 5 3 4 1 2 5 3 3 2 3 5 5 2 2 3 2 4 6 8 5 8 6 6 4 5 5 6 6 6 5 5 5 6
17 17 16 16 18 18 3 3 10 9 5 1 0 6 3 3 2 1 2 2 6 5 5 2 0 3 0 3 3 10 3 7 5 3 4 0 2 2 2 7 8 6 4 2 11 2 4 6 6 5 5 6 8 6 4 8 5 1 1 4 2 2 0 1 3 3 3 0 5 3 2 2 5 6 6 10 5 5 9 9 9 8 6 7 5 6 6 6
18 18 17 17 20 20 8 2 7 8 2 1 2 3 4 4 1 1 2 5 1 2 4 5 4 1 3 1 3 4 3 2 1 3 2 3 3 0 5 8 5 4 8 10 9 1 3 1 5 8 6 7 3 2 2 7 7 1 3 4 3 2 1 1 1 2 3 3 6 5 6 4 6 3 5 4 3 8 9 11 10 9 9 8 7 6 6 5
20 19 18 17 15 12 8 5 6 1 2 2 2 3 3 3 2 4 3 8 1 3 2 2 2 7 5 10 5 2 3 1 3 2 2 3 3 1 2 2 2 4 4 6 9 2 1 1 2 1 3 1 4 3 4 4 4 5 4 4 1 2 1 1 1 0 2 7 9 6 8 7 5 3 8 8 7 5 4 4 5 6 7 7 6 7 6 6
21 21 20 19 13 8 7 9 8 3 3 3 3 5 5 0 3 5 9 7 5 2 1 3 4 9 11 12 7 7 2 4 4 6 4 3 3 2 2 1 1 2 0 2 3 3 1 1 0 1 4 4 4 3 4 2 2 5 2 3 2 0 2 0 1 1 2 7 3 12 12 9 7 6 0 1 3 6 9 9 11 10 10 9 7 8 8 7
22 22 23 18 9 8 13 11 11 6 5 4 6 7 6 5 3 9 8 6 3 5 7 6 5 7 13 8 5 9 10 6 7 7 8 7 6 9 11 10 8 5 5 7 7 2 5 5 2 3 4 6 3 5 2 1 1 3 4 4 7 2 2 2 2 4 7 7 1 2 1 5 11 4 3 4 4 4 3 9 11 11 10 9 8 8 8 7
23 22 24 18 13 10 11 3 9 7 7 7 7 6 6 6 11 13 8 6 2 3 1 7 8 11 8 7 5 6 5 5 8 7 6 4 6 7 6 7 7 7 3 6 7 4 4 5 7 4 2 5 7 8 3 1 5 6 8 8 6 3 3 4 4 3 3 0 3 1 2 1 1 6 9 6 4 4 4 6 9 10 11 10 9 8 8 7
24 22 16 16 15 12 9 8 9 11 11 7 9 3 1 7 12 9 14 9 2 1 5 2 7 6 8 7 5 8 4 3 9 6 8 5 7 7 8 10 8 9 1 2 7 7 3 2 7 8 5 8 11 12 11 6 9 11 5 9 8 7 3 4 5 7 5 3 0 3 3 6 5 6 3 5 4 4 4 5 7 7 7 7 7 6 7 7
24 20 17 12 14 12 11 11 11 14 10 8 9 11 13 13 7 8 10 11 1 3 3 4 8 7 6 5 3 8 2 3 8 7 8 8 9 8 10 11 12 7 3 3 4 3 12 6 1 14 1 12 12 4 5 6 4 5 5 2 3 8 1 3 0 1 1 1 1 1 4 2 5 1 3 4 4 4 3 5 8 9 8 8 7 8 7 7
15 12 14 9 13 12 12 12 14 13 13 11 11 11 16 14 8 7 5 9 4 6 8 5 3 5 3 4 1 9 5 2 8 4 4 8 6 8 7 5 11 15 11 10 4 5 3 5 1 2 1 9 7 4 3 7 6 6 5 9 7 2 2 1 1 0 1 3 6 4 3 6 0 0 2 3 3 2 1 4 6 9 9 8 7 7 7 7
13 10 6 11 12 12 13 13 14 14 12 14 12 12 12 4 2 5 2 9 7 14 8 8 7 8 7 8 6 7 3 3 5 6 4 3 6 9 7 11 12 14 15 11 5 3 6 2 2 2 2 1 0 2 0 2 0 7 5 5 2 2 2 1 2 0 2 4 4 8 8 3 4 6 3 4 5 4 4 4 4 7 9 9 7 8 9 9
8 6 10 13 14 15 13 14 16 11 10 13 15 15 3 8 5 5 3 6 6 9 6 11 2 10 5 7 7 9 5 7 6 6 3 10 4 8 14 7 12 15 18 10 3 2 3 2 2 1 3 1 3 2 2 1 3 1 3 1 7 4 5 4 1 4 2 4 3 4 7 5 11 7 4 6 9 9 8 6 6 7 8 9 7 7 7 6
7 6 4 14 13 18 15 15 15 13 11 12 10 12 6 6 5 6 6 6 4 8 10 8 5 4 4 7 3 6 10 8 7 7 4 4 5 5 12 7 5 11 11 12 8 3 1 5 0 3 1 1 0 3 10 6 1 0 1 2 0 2 1 5 6 1 3 5 1 4 6 6 7 6 14 12 13 12 10 9 11 13 11 9 8 9 9 10
7 3 7 8 19 17 16 16 10 10 11 16 14 10 3 9 8 8 8 12 3 7 5 5 7 4 7 5 9 6 7 5 9 5 3 2 6 2 2 9 3 6 9 13 8 4 2 1 4 1 2 5 2 5 10 12 13 5 1 2 0 1 1 1 2 5 3 2 3 1 3 2 2 2 13 13 12 12 15 14 12 10 9 8 8 10 10 10
2 2 1 9 18 17 16 11 10 14 12 9 7 10 10 7 6 6 9 10 3 4 3 7 7 10 6 6 7 7 5 7 6 6 7 4 6 2 4 2 5 4 4 5 8 3 0 2 5 3 2 6 2 2 8 6 10 10 11 11 11 8 4 4 7 1 2 2 4 2 8 0 1 5 4 9 7 10 11 13 10 8 8 9 8 9 10 10
4 5 1 10 17 22 17 16 9 9 8 13 13 11 8 6 5 11 9 4 8 4 1 1 6 8 6 8 6 5 7 6 8 7 6 10 6 7 1 3 2 7 8 5 9 0 2 2 4 4 5 6 3 1 0 2 1 5 8 7 7 5 2 4 6 4 1 4 2 1 1 6 2 3 4 3 4 3 6 9 8 8 9 9 8 8 9 9
3 3 5 4 18 22 15 12 10 9 9 10 3 2 3 7 6 6 11 6 8 4 2 4 7 6 6 7 9 6 10 4 10 10 4 8 7 3 1 2 5 7 7 0 1 2 4 2 2 1 3 1 1 2 0 0 0 1 4 4 7 11 11 8 3 3 6 1 2 1 3 2 1 1 2 2 3 2 3 7 9 7 7 8 8 8 9 8
2 3 2 2 11 15 15 13 11 11 13 3 8 7 7 5 9 8 12 13 9 7 10 6 2 10 3 5 4 9 10 2 7 7 4 4 5 3 1 4 7 5 7 4 7 5 4 3 5 3 1 1 1 1 2 1 1 3 4 8 7 5 6 3 3 0 1 7 6 7 12 2 3 3 2 3 4 3 3 4 7 9 4 6 7 6 7 7
3 1 1 2 1 10 12 6 10 12 12 11 11 13 10 8 6 12 12 12 8 4 5 6 7 5 3 2 7 5 8 14 1 7 5 3 3 2 2 3 2 5 2 1 3 5 5 3 9 8 12 9 9 11 13 11 11 3 3 5 8 11 9 7 9 5 7 4 11 5 6 2 2 2 1 1 1 1 3 3 2 4 8 7 6 6 7 9
4 4 3 2 3 1 6 3 2 8 9 9 10 12 11 7 2 3 10 9 11 5 4 3 2 4 3 4 5 7 7 5 8 3 7 5 2 0 2 0 2 2 3 7 3 5 2 1 6 13 14 15 9 2 2 7 5 9 11 11 12 10 7 7 3 5 12 4 9 12 5 2 4 2 2 3 3 4 6 5 7 5 5 5 6 7 8 9
0 8 4 4 1 7 5 6 6 8 13 12 7 5 12 13 4 1 7 6 10 10 6 5 3 7 5 9 10 8 8 6 7 4 9 5 2 1 2 1 1 2 5 4 1 4 2 3 12 14 14 9 0 2 4 8 12 12 10 13 10 11 11 11 13 12 6 5 13 6 6 6 11 8 6 5 7 6 5 6 5 5 5 8 8 6 7 6
5 3 3 2 5 4 9 10 9 11 9 12 7 5 9 12 9 8 4 5 6 11 7 0 7 14 13 16 13 6 8 10 8 11 9 3 3 1 2 1 2 3 4 2 2 5 6 9 14 9 13 9 1 4 3 2 7 11 15 13 14 13 12 16 15 6 8 11 15 5 11 10 13 8 10 9 9 9 6 6 8 8 6 4 5 6 8 8
2 2 2 4 6 5 13 9 12 10 10 14 7 12 11 15 17 15 8 7 5 8 15 8 15 18 16 12 9 7 9 5 11 11 6 8 8 5 3 1 4 5 4 3 4 2 4 9 7 10 13 10 6 4 2 1 2 2 8 13 13 15 17 15 11 12 10 8 8 9 4 8 6 3 12 10 6 5 5 4 5 5 6 7 7 7 8 8
2 2 2 2 3 2 2 5 8 11 12 13 9 12 14 15 17 11 5 10 7 10 11 15 15 16 13 11 12 11 16 19 15 10 9 8 3 6 8 7 3 2 2 5 4 2 8 6 8 5 8 12 11 4 2 1 1 3 4 4 7 9 10 8 10 13 9 8 13 5 5 12 8 7 6 4 4 1 2 4 7 6 6 6 7 7 8 9
2 2 2 1 2 2 1 2 9 12 9 8 11 10 12 14 15 13 10 11 14 11 13 22 21 8 10 14 15 20 19 14 11 11 11 18 15 12 11 5 11 8 8 4 3 2 5 4 2 6 9 9 8 10 6 3 1 3 8 12 11 4 6 10 12 6 6 12 10 4 9 14 3 8 3 3 5 5 6 5 5 5 6 7 8 8 9 9
1 2 1 1 2 1 3 1 1 8 13 11 10 12 8 11 10 11 7 8 15 12 13 20 17 11 7 16 21 23 18 9 7 4 5 1 5 6 3 4 11 13 11 10 3 8 7 6 7 7 10 7 4 10 8 6 2 3 14 22 11 5 4 4 3 7 12 9 6 10 14 13 2 4 4 3 5 6 6 6 6 6 6 7 9 10 11 9
Wind_Direction
208 293 298 356 33 10 2 14 20 10 3 13 9 5 3 5 356 355 353 348 344 343 342 339 340 338 335 334 337 334 332 320 282 265 114 76 299 324 309 292 298 300 334 309 281 257 273 187 243 98 260 194 281 4 282 278 11 287 228 221 293 69 65 324 34 72 174 115 161 115 9 359 115 168 122 220 220 228 261 193 91 71 71 94 102 91 67 58
233 239 280 323 347 351 351 352 10 356 358 359 3 1 359 357 355 350 350 349 346 341 340 339 336 335 334 335 336 337 332 301 269 72 40 343 337 338 325 325 314 3 301 281 307 336 320 65 87 282 260 209 274 82 277 312 67 329 307 335 78 27 92 24 56 43 11 95 93 106 61 335 52 38 60 341 295 184 218 222 111 97 105 96 84 58 55 55
223 236 259 292 334 341 341 339 342 350 343 355 356 356 354 354 351 350 345 346 345 340 337 336 336 332 332 333 333 328 326 276 247 69 32 5 347 348 357 352 344 76 271 324 338 327 339 345 333 320 277 23 198 157 245 326 330 37 63 17 52 85 87 56 47 88 46 18 123 116 98 46 359 20 78 292 297 329 322 6 113 117 122 79 62 58 51 51
222 231 243 271 300 330 323 321 329 333 342 351 353 351 352 349 350 348 343 341 342 339 336 336 333 332 328 326 328 315 272 278 220 103 70 354 8 13 8 357 337 282 258 266 303 308 326 282 287 279 318 243 151 151 210 2 17 3 355 26 70 9 93 51 75 74 61 18 29 4 78 280 278 74 35 355 333 269 90 56 50 76 67 76 73 57 53 54
227 227 236 246 272 288 305 314 318 325 337 346 351 349 348 347 348 344 342 339 339 337 336 333 332 328 324 321 315 282 298 237 81 60 1 339 29 35 5 336 319 303 289 298 285 250 282 298 309 298 285 225 127 185 76 108 66 335 45 122 82 321 70 97 77 63 81 10 39 315 225 239 44 19 225 237 229 267 94 68 70 81 79 71 63 75 63 63
228 225 228 239 246 276 296 308 317 315 334 340 347 350 345 345 346 341 339 339 336 334 332 332 329 326 322 315 305 246 294 344 193 156 354 326 76 34 358 308 294 296 290 282 303 332 291 228 264 251 246 286 126 56 39 60 292 325 83 60 45 59 30 120 121 98 143 154 230 228 254 17 171 291 258 210 224 102 76 93 79 86 71 81 74 63 69 61
223 227 227 235 249 266 293 311 325 325 336 339 340 348 347 344 340 340 335 335 332 329 329 328 326 327 325 306 217 252 278 94 72 215 220 295 315 59 309 287 260 283 287 278 251 298 26 308 277 13 332 281 78 60 87 59 254 221 275 148 113 73 339 106 98 142 168 240 224 236 91 275 299 279 188 206 74 109 99 94 99 84 83 77 76 68 76 69
220 227 237 242 256 276 298 315 318 322 329 337 337 339 340 339 337 333 332 329 328 325 326 325 324 327 344 337 259 253 241 104 76 155 198 261 200 173 265 263 277 322 301 326 344 324 358 287 309 9 255 328 88 313 108 303 195 233 273 46 91 345 236 151 135 179 182 227 250 294 264 246 227 243 104 113 118 109 113 109 90 98 93 79 78 82 76 65
219 216 212 207 234 259 286 304 314 312 317 327 334 333 333 333 330 329 326 326 324 321 321 322 324 330 313 268 273 307 1 88 26 129 181 187 97 98 303 238 186 289 308 304 311 315 342 19 339 38 7 345 45 325 125 33 307 359 45 280 19 207 194 183 191 203 201 219 197 222 239 249 246 119 231 122 120 114 117 99 111 107 112 97 90 83 73 72
223 216 219 208 198 210 269 288 294 302 304 314 325 328 326 328 326 324 325 323 319 318 317 320 328 327 320 256 288 276 98 300 154 104 69 89 129 149 219 13 332 289 278 66 298 268 336 15 17 343 31 273 33 274 78 237 175 256 353 342 303 288 299 196 210 216 206 208 179 204 250 255 83 132 238 72 117 128 114 114 125 138 104 109 105 70 74 74
232 223 222 210 212 217 286 293 297 292 295 307 316 322 325 321 324 322 321 319 316 313 315 317 331 331 311 292 299 273 221 274 45 99 85 315 164 168 34 17 9 318 321 109 299 23 11 344 7 343 66 24 296 82 326 65 287 329 16 299 272 254 235 246 230 235 202 216 206 224 251 258 179 94 249 136 137 144 128 135 146 135 131 114 107 102 74 80
237 234 222 213 212 227 280 310 295 290 289 299 310 316 318 320 319 321 319 315 311 311 313 320 325 306 284 286 237 264 227 73 150 123 100 340 60 66 31 25 344 15 332 322 66 47 39 350 324 320 35 339 86 165 74 355 346 356 314 311 293 296 266 204 209 206 178 254 187 158 265 261 183 219 109 134 146 159 141 146 148 131 122 115 107 107 92 81
235 229 222 216 216 206 254 298 296 297 293 291 302 310 313 317 318 317 318 311 308 308 313 320 322 267 299 256 179 172 270 145 110 126 110 90 91 66 76 30 332 358 17 327 41 23 17 348 354 299 26 356 315 285 175 260 184 302 255 227 297 274 256 232 174 137 149 148 163 111 323 277 181 125 137 133 160 161 149 155 154 140 134 135 126 112 96 77
231 234 231 217 211 208 198 238 284 289 290 287 296 307 312 314 314 313 311 306 303 297 308 319 320 271 279 264 120 283 357 3 166 182 128 162 147 67 153 172 305 40 249 70 57 330 47 332 312 307 112 357 349 223 269 184 191 236 308 149 239 337 250 45 105 158 160 130 162 153 230 310 112 124 143 169 157 177 170 165 160 145 141 132 124 118 113 99
226 229 229 218 206 197 193 195 290 282 279 279 284 298 309 310 309 307 304 303 305 311 303 303 230 277 219 162 79 100 296 293 200 169 130 205 157 138 134 157 93 84 48 83 101 309 266 29 325 225 136 43 176 197 269 258 204 218 304 259 218 183 289 174 116 166 165 222 230 161 245 253 160 163 159 178 167 191 193 157 154 155 148 148 149 131 118 116
226 225 219 219 201 197 191 201 176 270 270 270 278 296 301 298 301 300 296 295 299 294 285 262 174 269 321 256 121 168 213 194 161 82 82 335 220 261 126 113 153 140 160 58 100 245 272 202 275 334 102 172 219 215 282 308 270 206 178 277 297 212 196 130 203 164 308 122 189 178 259 23 183 160 181 168 181 200 197 164 160 155 151 146 140 130 125 126
225 228 219 209 193 191 189 194 173 253 257 266 289 287 279 278 292 287 292 292 297 214 247 324 314 148 269 72 112 216 184 100 283 131 87 307 327 132 132 145 148 131 76 128 172 242 127 235 128 12 258 248 222 198 236 247 270 249 170 218 233 232 274 261 19 292 213 190 173 231 250 240 161 176 173 185 196 186 209 175 158 152 152 140 121 132 140 127
225 228 218 208 195 182 191 188 192 224 247 270 279 290 294 300 302 305 277 248 234 250 246 238 257 296 226 97 218 155 72 117 153 123 117 103 281 195 171 186 113 148 162 125 98 230 147 194 132 244 181 199 232 211 152 215 196 233 140 202 261 262 224 226 205 169 195 176 274 226 212 244 251 182 185 191 196 197 199 195 155 153 150 136 146 135 125 116
226 217 209 209 190 181 185 193 203 214 244 274 280 281 286 287 294 259 282 175 183 120 219 185 184 177 283 168 94 97 64 97 87 142 147 179 244 229 194 45 183 150 177 206 171 199 146 82 76 271 236 200 206 208 207 223 269 288 328 348 344 328 316 306 33 159 172 179 218 227 243 265 273 276 169 188 199 195 210 173 136 151 144 141 136 132 131 115
225 212 207 195 191 186 179 189 211 209 254 282 263 237 235 237 179 177 212 219 239 220 338 153 203 37 104 138 115 38 168 225 139 206 133 167 155 154 175 197 165 249 203 192 139 213 145 183 192 201 216 221 213 214 231 237 253 296 34 248 268 289 289 295 296 137 145 36 246 245 263 259 264 255 201 187 169 212 210 151 154 154 141 144 144 142 129 116
218 215 201 200 198 183 180 192 209 202 248 276 278 244 213 225 191 212 162 224 227 253 266 248 188 228 290 106 121 162 132 187 284 147 160 183 192 157 172 183 158 210 224 222 146 3 31 215 224 219 225 230 241 237 218 230 256 269 291 309 293 273 272 276 283 170 63 138 258 322 292 274 265 261 236 157 158 200 203 172 172 157 142 140 146 134 136 108
211 210 206 207 199 182 176 192 197 152 263 273 257 227 331 54 332 216 279 253 206 227 238 250 280 251 146 152 176 214 277 132 212 142 348 206 182 197 159 195 176 206 185 207 81 108 214 223 225 225 236 249 260 58 9 348 304 322 291 279 271 238 256 260 260 112 134 201 260 262 279 286 291 283 271 163 182 190 181 159 171 157 145 144 145 139 119 131
208 208 208 209 183 176 176 182 171 149 225 211 213 240 274 36 312 321 280 258 278 200 212 221 228 232 204 126 163 194 178 188 181 171 182 206 154 244 155 191 193 223 216 178 181 175 246 229 227 233 236 240 209 101 4 299 278 244 250 234 234 243 256 285 52 204 122 165 288 312 288 272 264 251 250 140 146 86 63 64 49 70 140 156 155 147 147 147
203 204 210 202 180 179 169 171 149 147 228 224 237 223 78 278 3 296 230 256 299 213 197 202 211 206 206 169 175 177 197 208 220 185 162 174 173 164 200 188 205 206 217 200 204 217 225 224 28 197 210 180 221 208 208 214 255 219 211 235 244 212 228 203 247 192 180 220 205 267 284 273 251 243 126 34 74 103 95 78 78 43 58 74 74 91 135 150
201 199 201 188 182 168 161 161 172 211 207 227 246 254 285 307 319 344 323 287 231 237 14 48 65 246 197 30 133 181 205 248 224 123 171 184 153 120 220 181 217 226 215 203 218 237 248 242 114 197 153 171 199 246 192 189 242 247 220 204 218 255 274 313 344 14 7 318 157 162 332 290 134 175 171 152 140 152 159 150 177 167 137 142 142 137 80 83
201 198 197 199 179 161 152 182 210 186 201 219 220 210 230 235 247 285 302 260 278 165 35 211 132 242 73 155 137 182 62 222 334 153 163 220 8 182 109 217 181 227 214 216 220 229 251 136 150 159 157 163 200 208 194 165 227 245 263 350 199 199 60 21 315 46 309 251 293 79 154 264 356 4 165 165 179 182 135 200 185 174 173 178 182 156 148 147
202 198 196 186 169 153 154 226 133 156 186 241 214 226 196 165 93 169 175 240 280 167 163 354 147 243 20 158 147 102 194 212 122 71 121 355 179 351 205 192 178 252 343 211 234 246 118 155 114 137 149 178 198 216 216 171 173 246 313 11 64 74 131 205 224 203 250 343 268 172 175 250 282 266 237 173 171 181 191 207 199 179 177 182 183 157 161 162
201 198 196 184 171 173 219 125 139 172 186 71 287 151 146 130 102 95 127 0 265 97 117 218 229 304 26 141 182 167 358 113 139 214 3 355 1 95 232 201 194 184 201 184 226 4 149 177 142 176 193 191 214 218 184 192 191 171 246 111 79 107 187 259 194 245 228 334 276 200 171 316 250 256 209 152 168 200 216 200 201 182 180 175 173 159 159 155
200 198 193 183 175 192 245 245 181 194 141 162 95 135 122 120 181 189 112 227 133 104 317 107 273 54 82 81 197 136 163 324 302 54 282 24 348 201 196 236 247 192 196 212 234 157 347 193 178 184 178 217 162 39 355 170 202 181 127 62 89 87 78 209 215 200 275 240 238 193 180 210 277 233 126 175 215 215 209 199 188 179 172 174 164 157 151 139
199 196 190 181 174 197 219 249 239 134 122 121 142 129 121 136 153 171 96 246 112 219 93 98 213 175 150 150 182 113 168 98 48 145 162 174 177 299 7 334 276 274 266 222 234 47 156 134 136 163 215 167 105 52 37 45 82 150 118 95 65 74 185 22 6 108 343 249 236 209 207 175 287 252 186 171 218 184 135 123 149 158 163 166 159 153 151 147
199 195 190 179 186 184 168 218 210 165 145 126 139 145 139 128 181 151 216 216 10 98 108 143 113 128 153 152 191 198 189 126 147 145 134 211 151 271 220 59 250 340 29 339 284 130 154 53 339 254 75 92 109 64 25 357 124 131 134 126 113 335 43 4 255 253 205 261 200 199 212 182 210 285 333 128 89 126 150 165 164 167 171 166 160 157 152 153
199 196 189 186 185 155 188 210 186 146 142 146 151 147 159 134 302 197 223 69 246 170 166 151 134 171 178 188 162 163 173 166 157 177 164 183 169 178 200 188 157 176 243 199 237 130 237 197 139 54 284 140 147 92 354 58 51 145 133 140 133 198 87 241 149 209 212 240 275 349 313 194 229 244 142 179 128 128 138 160 167 167 164 162 159 156 153 153
198 195 190 191 181 199 204 83 134 154 132 164 146 159 139 169 209 215 232 169 254 104 148 127 171 184 182 181 199 154 160 180 158 190 144 180 177 220 218 219 185 178 205 177 210 141 271 191 184 173 38 225 161 158 162 50 220 172 177 172 153 174 192 227 195 225 251 277 292 55 312 297 316 252 227 168 125 116 98 137 152 160 161 159 157 153 150 154
199 194 192 191 192 199 182 149 153 138 143 164 136 154 128 178 222 198 203 211 208 4 104 161 152 167 179 185 181 146 162 211 150 187 172 179 196 198 204 223 208 217 223 134 183 169 233 326 226 139 234 173 199 199 179 163 163 200 190 177 188 177 176 214 182 207 210 176 197 301 86 233 128 241 25 95 80 61 60 92 132 131 133 137 137 137 142 150
199 197 198 188 194 195 170 160 146 145 144 151 160 176 185 213 223 168 200 198 167 150 142 139 149 151 191 222 118 169 129 172 174 173 193 186 204 205 192 199 210 206 174 210 205 134 212 227 240 174 18 156 195 203 153 127 149 202 203 215 231 230 100 193 189 59 102 110 102 236 200 201 182 89 85 90 65 52 57 98 122 128 130 133 142 157 163 164
197 203 193 188 195 181 167 162 152 154 161 163 176 190 198 196 202 156 210 168 162 156 137 131 139 165 184 175 51 190 357 112 181 174 221 215 213 206 197 188 193 196 187 196 153 191 154 230 35 47 20 169 190 174 197 145 178 201 167 216 191 50 46 342 9 358 51 11 252 153 292 299 58 19 116 135 104 124 114 134 129 136 143 148 166 169 170 173
196 181 198 199 197 162 164 158 158 166 176 171 182 207 218 236 171 145 165 161 163 133 151 158 202 171 179 198 174 192 210 57 179 171 210 160 262 224 203 213 186 197 212 181 226 196 147 193 320 99 201 336 8 291 3 63 45 109 207 210 57 33 80 148 223 60 189 224 257 151 194 232 143 256 148 129 169 186 185 172 161 143 152 168 176 175 176 180
191 193 208 198 183 159 159 160 154 172 182 192 196 206 103 216 179 155 115 103 130 154 157 202 222 174 195 170 190 172 190 177 176 157 244 164 266 179 209 211 189 198 204 211 214 272 156 246 220 282 72 14 352 47 348 10 59 140 174 343 142 229 248 218 109 246 193 227 260 228 193 215 185 212 141 192 188 198 190 168 166 173 179 181 172 174 174 167
186 183 213 208 150 159 160 159 164 169 179 199 203 224 214 235 133 180 172 136 145 161 194 212 168 210 163 185 157 159 158 186 157 192 155 198 221 185 200 185 210 196 191 196 224 242 49 207 340 308 118 149 70 151 197 198 262 111 318 333 184 80 265 150 197 239 138 243 181 284 146 250 190 204 183 191 197 183 166 167 191 192 188 175 173 174 175 177
178 163 249 133 158 153 155 156 165 187 195 193 195 223 137 214 212 178 182 155 183 164 216 171 202 164 197 210 144 163 192 170 168 203 183 221 208 21 243 172 183 184 179 194 219 129 263 132 257 131 335 114 204 194 202 179 186 202 143 251 170 177 269 93 305 182 180 205 218 249 280 273 270 213 172 188 181 171 167 181 191 192 184 178 175 175 180 183
197 225 288 155 151 148 142 156 178 192 199 218 218 210 194 211 162 199 192 191 169 2 158 186 170 203 173 179 213 134 161 181 178 185 195 246 194 251 234 167 180 161 163 207 210 160 209 161 203 85 252 225 273 174 206 201 201 200 185 198 184 155 151 166 253 155 210 118 233 166 253 232 287 343 167 173 171 155 176 172 180 176 170 175 176 178 178 185
165 217 230 155 145 146 155 171 194 184 200 198 204 189 192 205 189 185 173 210 206 180 352 166 198 192 167 195 178 155 158 178 196 193 214 215 205 220 302 300 94 150 136 157 195 104 174 87 97 194 214 212 264 353 11 120 83 210 195 218 178 203 166 192 205 238 48 250 112 165 20 257 277 346 3 44 54 74 161 152 153 160 166 175 180 173 178 183
205 222 342 230 157 156 164 194 175 188 205 213 92 105 187 183 208 162 176 174 195 154 123 201 193 176 207 186 188 182 163 197 178 203 186 214 236 212 115 158 123 104 99 355 54 240 99 145 177 339 9 329 273 168 160 36 135 326 270 203 181 206 198 206 209 174 175 190 201 292 257 270 290 57 329 69 42 8 11 130 141 154 164 170 163 164 166 168
150 128 178 353 187 167 174 182 191 195 216 156 181 204 187 199 184 172 198 186 188 175 197 184 181 211 205 149 163 192 164 209 210 192 242 178 214 117 188 182 162 160 160 218 165 195 137 206 152 113 276 269 308 341 283 220 146 218 198 206 205 208 196 201 96 343 192 211 162 151 237 182 266 35 338 60 65 49 77 78 126 134 138 144 152 156 154 158
102 66 73 175 253 200 196 195 194 192 199 192 180 196 168 206 216 204 184 191 190 197 173 209 194 148 201 165 197 191 185 196 122 215 217 190 203 86 21 183 260 174 106 37 107 154 181 172 159 186 208 214 208 205 210 205 209 203 224 197 199 197 184 128 206 173 220 208 152 205 235 178 145 16 9 82 72 159 137 147 119 143 154 148 155 158 161 166
180 215 154 268 221 288 256 39 191 191 201 198 202 202 185 188 169 213 184 205 187 179 176 73 43 151 154 141 192 199 203 211 204 189 189 214 161 24 35 294 200 155 161 143 177 139 168 196 203 207 209 223 237 327 298 105 82 193 207 188 203 201 189 186 172 186 214 160 191 225 168 160 228 240 186 219 218 190 159 163 161 145 149 160 166 170 175 175
310 217 138 202 85 245 239 201 196 189 207 188 216 156 200 202 162 285 186 201 195 192 168 161 157 165 201 187 201 212 197 192 218 211 207 172 63 106 18 91 68 32 133 115 142 86 101 197 221 224 228 228 164 226 283 168 180 210 185 203 202 197 195 188 195 214 131 122 240 210 139 222 231 165 187 194 223 221 197 176 153 154 177 172 176 173 172 165
202 276 194 200 192 194 212 232 209 205 203 177 205 181 199 196 184 194 178 233 156 183 165 219 204 208 189 192 186 194 178 207 179 216 211 138 116 150 83 149 206 142 140 143 217 152 167 216 226 201 235 236 250 251 335 309 204 192 198 197 200 202 197 203 212 202 155 205 230 193 160 211 245 168 180 191 206 206 195 180 190 180 166 162 154 165 179 185
326 360 264 329 223 197 209 201 187 200 206 185 199 202 202 199 208 204 174 169 177 187 190 202 210 211 210 194 175 207 181 190 227 222 183 194 177 131 164 55 241 154 176 155 186 203 133 236 223 184 222 206 231 228 290 27 349 314 211 207 202 199 206 205 209 213 206 219 235 231 195 227 240 129 172 202 202 183 195 167 126 144 172 176 180 184 192 196
262 235 254 23 352 358 357 172 183 196 218 190 200 200 207 203 209 192 177 171 188 207 188 218 218 207 202 194 196 205 208 208 206 200 199 160 172 188 203 183 148 97 175 192 168 259 173 232 176 187 214 221 209 199 222 255 279 267 284 250 221 209 203 197 208 221 218 251 250 263 296 272 251 150 161 188 191 123 97 126 166 180 177 184 187 195 203 206
327 5 324 59 222 226 57 267 183 191 215 211 215 198 212 204 211 191 201 185 188 183 188 209 217 184 179 198 210 220 221 215 218 212 187 174 200 195 172 230 147 156 178 180 184 213 175 251 49 178 212 220 202 194 192 204 277 259 274 266 243 189 172 195 211 193 183 220 236 261 259 255 269 116 166 182 145 160 184 191 184 192 194 189 189 203 209 215
71 212 187 331 305 215 176 109 344 183 218 203 212 216 215 211 216 181 223 206 210 209 198 204 208 191 191 198 213 220 221 205 201 135 164 137 63 78 123 154 166 167 173 190 165 170 188 168 176 188 207 204 175 158 150 132 131 283 236 236 225 208 220 229 215 185 205 201 206 215 234 244 226 118 131 213 174 195 198 200 218 223 213 190 198 207 215 216